Location: Kellogg
(38.0159°N, 90.0546°W)
Time: 22:17:48
(UTC+00:00)

SR - Pass Details

Date: 19 September 2024
Orbit: 578 x 855 km, 66.7° (Epoch: 09 October)

Event Time Altitude Azimuth Distance (km) Brightness Sun altitude
Rises 02:00:00 0° 347° (NNW) 2,950 ? -23.4°
Reaches altitude 10° 02:02:54 10° 7° (N) 2,088 ? -23.9°
Enters shadow 02:04:48 16° 29° (NNE) 1,734 ? -24.3°
Maximum altitude 02:06:09 18° 50° (NE) 1,666 - -24.5°
Drops below altitude 10° 02:09:33 10° 93° (E) 2,205 - -25.1°
Sets 02:12:43 0° 112° (ESE) 3,184 - -25.7°
